Voltar ao catálogo

STARLINK-35916

AtivoComunicaçõesVLEO
NORAD 66504·PAYLOAD·🇺🇸 United States

Lançado Nov 15, 2025 de Cape Canaveral Space Force Station

Loading…

Próximas Passagens (próximas 24 horas)

TLE

AtualizadoSource: CelesTrak SupGP

Época: Sep 15, 2026, 04:08 UTC

1 66504C 25263V   26258.17270833  .00046540  00000+0  16851-2 0  2582
2 66504  43.0041   4.2730 0001797 263.9004 170.6536 15.27565707    13

Acompanhe STARLINK-35916 em tempo real com AllMySat

Download on the App Store